This demonstration page uses our WeatherBlox Daily Observations layout. Learn more.

Left ArrowRight Arrow

Hourly Observations for August 9, 2022

Temp ( °F °C ) Dew Point ( °F °C ) Humidity (%) Winds ( mph kmh ) Pressure ( in mb ) Visibility ( mi km ) Precip ( " mm )
12:56 am 00:56 Clear 64 17.8 61 16.1 90 90 SSE 5 7 30.11 1020 10 16 0.00 0.00
1:56 am 01:56 Clear 62 16.7 60 15.6 93 93 S 6 9 30.10 1019 10 16 0.00 0.00
2:56 am 02:56 Clear 61 16.1 59 15 93 93 S 6 9 30.09 1019 10 16 0.00 0.00
3:56 am 03:56 Clear 60 15.6 58 14.4 93 93 S 6 9 30.09 1019 10 16 0.00 0.00
4:56 am 04:56 Clear 59 15 57 13.9 93 93 Calm 30.08 1019 10 16 0.00 0.00
5:56 am 05:56 Clear 58 14.4 57 13.9 97 97 SSE 5 7 30.09 1019 9 14 0.00 0.00
6:56 am 06:56 Sunny 58 14.4 56 13.3 93 93 SSE 3 6 30.11 1020 10 16 0.00 0.00
7:56 am 07:56 Sunny 62 16.7 57 13.9 84 84 Calm 30.12 1020 10 16 0.00 0.00
8:56 am 08:56 Sunny 66 18.9 59 15 78 78 SSW 5 7 30.13 1020 10 16 0.00 0.00
9:40 am 09:40 Mostly Sunny 72 22 61 16 69 69 S 6 9 30.08 1019 10 16 0.00 0.00
9:56 am 09:56 Sunny 72 22.2 60 15.6 66 66 SSE 8 13 30.14 1021 10 16 0.00 0.00
10:56 am 10:56 Sunny 76 24.4 61 16.1 60 60 VRB 7 11 30.13 1020 10 16 0.00 0.00
11:56 am 11:56 Sunny 78 25.6 62 16.7 58 58 VRB 7 11 30.13 1020 10 16 0.00 0.00
12:56 pm 12:56 undefined 81 27.2 62 16.7 53 53 SSE 8 13 30.11 1020 10 16 0.00 0.00
1:56 pm 13:56 Sunny 84 28.9 63 17.2 49 49 SE 7 11 30.09 1019 10 16 0.00 0.00
2:56 pm 14:56 Sunny 86 30 61 16.1 43 43 SSE 8 13 30.08 1019 10 16 0.00 0.00
3:56 pm 15:56 Sunny 88 31.1 58 14.4 36 36 S 9 15 30.07 1018 10 16 0.00 0.00
4:56 pm 16:56 Sunny 88 31.1 61 16.1 41 41 SSE 9 15 30.05 1018 10 16 0.00 0.00
5:56 pm 17:56 Sunny 87 30.6 64 17.8 46 46 SSE 10 17 30.04 1017 10 16 0.00 0.00
6:56 pm 18:56 Sunny 85 29.4 65 18.3 51 51 SSE 9 15 30.04 1017 10 16 0.00 0.00
7:56 pm 19:56 Sunny 82 27.8 67 19.4 60 60 SSE 7 11 30.04 1017 10 16 0.00 0.00
8:56 pm 20:56 Clear 76 24.4 66 18.9 71 71 SSE 7 11 30.05 1018 10 16 0.00 0.00
9:56 pm 21:56 Clear 73 22.8 66 18.9 79 79 SSE 9 15 30.07 1018 10 16 0.00 0.00
10:56 pm 22:56 Clear 71 21.7 64 17.8 79 79 SSE 7 11 30.09 1019 10 16 0.00 0.00
11:56 pm 23:56 Clear 70 21.1 62 16.7 76 76 S 5 7 30.11 1020 10 16 0.00 0.00

Powered by AerisWeather